Regional Weather Roundup
Issued by NWS

Current Version | Previous Version | Graphics & Text | Print | Product List | Glossary On
Versions: 1 2 3 4 5 6 7 8 9 10 11 12 13 14 15 16 17 18 19 20 21 22 23 24 25 26 27 28 29 30 31 32 33 34 35 36 37 38 39 40 41 42 43 44 45 46 47 48 49 50
322
ASUS42 KFFC 140710
RWRGA
WEATHER ROUNDUP FOR GEORGIA
NATIONAL WEATHER SERVICE PEACHTREE CITY GA
200 AM EST THU NOV 14 2019

NOTE: "FAIR" INDICATES FEW OR NO CLOUDS BELOW 12,000 FEET WITH NO
SIGNIFICANT WEATHER AND/OR OBSTRUCTIONS TO VISIBILITY.

* = USE WITH CAUTION. THE STATIONS MARKED WITH AN ASTERISK MAY NOT
REPORT WEATHER SUCH AS PRECIPITATION, FOG, OR THUNDER AND ARE NOT
QUALITY CONTROLLED BY NWS.

THE REMARK "TC" DENOTES TEMPERATURE READING IN DEGREES CELSIUS.

GAZ001>058-140800-
NORTH GEORGIA

CITY           SKY/WX    TMP DP  RH WIND       PRES   REMARKS
ATLANTA        CLOUDY    35  21  56 E10       30.30F WCI  27
ATHENS         FAIR      30  23  75 NE3       30.35R
CHAMBLEE       FAIR      32  20  61 CALM      30.31F
PEACHTREE CITY FAIR      35  24  64 E3        30.30F
ROME           FAIR      30  24  78 CALM      30.30F
WEST ATLANTA   FAIR      36  20  52 E6        30.32S WCI  31
GAINESVILLE    FAIR      30  21  69 NE6       30.34S WCI  24
CARTERSVILLE   FAIR      36  20  52 E3        30.32F


CITY           SKY/WX    TMP DP  RH WIND       PRES   REMARKS
DALTON*        FAIR      36  21  55 S3        30.31F
LAWRENCEVILLE* FAIR      31  23  72 NE5       30.33S WCI  26
MARIETTA       FAIR      33  20  57 E5        30.31S WCI  29
KENNESAW*      FAIR      34  20  56 E10       30.32F WCI  26
CANTON*        FAIR      32  21  64 CALM      30.31F
BLAIRSVILLE*   FAIR      31  14  49 E7        30.29F WCI  24
$$

GAZ059>098-102>109-140800-
CENTRAL GEORGIA

CITY           SKY/WX    TMP DP  RH WIND       PRES   REMARKS
AUGUSTA-BUSH   CLOUDY    39  25  57 NE7       30.33F WCI  34
AUGUSTA-DANIEL CLOUDY    39  19  44 NE12      30.33F WCI  32
COLUMBUS       CLOUDY    39  23  52 E9        30.29R WCI  33
MACON          CLOUDY    39  23  52 E10       30.30F WCI  32
ROBINS AFB     CLOUDY    38  24  55 CALM      30.29F


CITY           SKY/WX    TMP DP  RH WIND       PRES   REMARKS
LAGRANGE*      MOCLDY    35  22  59 E3        30.29S
SYLVANIA*      FAIR      39  25  57 NE7       30.31S WCI  34
MILLEDGEVILLE* CLOUDY    37  27  65 E7        30.32F WCI  32
$$

GAZ099>101-110>166-140800-
SOUTH GEORGIA

CITY           SKY/WX    TMP DP  RH WIND       PRES   REMARKS
SAVANNAH       FAIR      40  27  59 NE9       30.28F WCI  34
VALDOSTA       CLOUDY    44  31  60 N8        30.22S
ALMA           CLOUDY    43  28  55 CALM      30.25S
ST SIMONS      CLOUDY    48  38  68 N14       30.22F
FT STEWART     PTCLDY    40  27  60 NE6       30.25F
ALBANY         MOCLDY    42  27  55 NE9       30.27F
HUNTER AFB     FAIR      40  27  59 N7        30.24F
MOODY AFB      CLOUDY    43  30  61 NE6       30.21F
BRUNSWICK      CLOUDY    44  35  70 NE10      30.24S


CITY           SKY/WX    TMP DP  RH WIND       PRES   REMARKS
BAINBRIDGE*    CLOUDY    43  29  59 NE9       30.25R
MOULTRIE*      CLOUDY    43  30  61 NE3       30.23S
VIDALIA*       CLOUDY    43  25  49 NE6       30.29R
WAYCROSS*      CLOUDY    45  26  47 NE8       30.24S
DOUGLAS*       CLOUDY    44  30  59 NE8       30.26S
$$




USA.gov is the U.S. government's official web portal to all federal, state and local government web resources and services.